Date,TemperatureHighF,TemperatureAvgF,TemperatureLowF,DewpointHighF,DewpointAvgF,DewpointLowF,HumidityHigh,HumidityAvg,HumidityLow,PressureMaxIn,PressureMinIn,WindSpeedMaxMPH,WindSpeedAvgMPH,GustSpeedMaxMPH,PrecipitationSumIn
2013-9-1,75.0,61.9,49.0,38.0,31.4,24.0,62,36,17,0.00,40.00,8,5,16,0.00
2013-9-2,65.0,60.8,55.0,50.0,37.8,25.0,74,46,25,0.00,40.00,10,6,17,0.04
2013-9-3,73.0,62.5,53.0,49.0,45.7,42.0,84,56,33,0.00,40.00,11,4,23,0.03
2013-9-4,73.0,60.2,51.0,53.0,48.5,44.0,88,68,36,0.00,40.00,14,5,25,0.06
2013-9-5,79.0,64.3,54.0,50.0,45.9,41.0,73,54,27,0.00,40.00,19,4,38,0.13
2013-9-6,77.0,60.4,50.0,50.0,43.4,38.0,92,56,27,0.00,40.00,16,8,30,0.50
2013-9-7,73.0,58.7,52.0,50.0,42.0,-99.9,90,56,29,0.00,40.00,16,7,27,0.20
2013-9-8,62.0,55.7,50.0,50.0,42.6,35.0,97,62,42,0.00,40.00,16,5,32,0.00
2013-9-9,61.0,50.9,44.0,46.0,40.6,35.0,96,69,54,0.00,40.00,10,4,22,0.00
2013-9-10,60.0,51.8,43.0,44.0,39.9,36.0,85,65,51,0.00,40.00,8,3,15,0.00
2013-9-11,70.0,53.8,46.0,40.0,37.9,32.0,76,57,29,0.00,40.00,6,3,17,0.00
2013-9-12,57.0,49.1,44.0,49.0,42.7,38.0,91,79,59,0.00,40.00,9,3,21,0.02
2013-9-13,61.0,51.4,45.0,47.0,42.0,39.0,92,72,45,0.00,40.00,9,2,13,0.01
2013-9-14,49.0,46.0,44.0,48.0,43.2,-99.9,100,92,82,0.00,40.00,7,4,18,1.59
2013-9-15,52.0,48.1,46.0,49.0,47.1,45.0,100,96,86,0.00,40.00,10,4,17,1.54
2013-9-16,71.0,56.6,47.0,47.0,40.5,33.0,94,58,31,0.00,40.00,15,8,27,0.01
2013-9-17,64.0,52.5,42.0,50.0,39.4,33.0,94,63,41,0.00,40.00,18,10,39,0.17
2013-9-18,47.0,41.2,32.0,38.0,33.4,27.0,86,74,65,0.00,40.00,16,9,32,0.20
2013-9-19,48.0,39.1,32.0,36.0,29.5,22.0,90,70,46,0.00,40.00,15,5,28,0.02
2013-9-20,61.0,46.6,33.0,31.0,25.8,16.0,88,48,24,0.00,40.00,12,5,17,0.00
2013-9-21,67.0,57.1,50.0,27.0,20.8,-99.9,35,25,18,0.00,40.00,17,8,28,0.00
2013-9-22,60.0,52.7,45.0,37.0,28.7,21.0,59,40,26,0.00,40.00,15,7,25,0.00
2013-9-23,53.0,44.3,35.0,32.0,26.7,22.0,81,52,33,0.00,40.00,21,9,39,0.00
2013-9-24,62.0,48.1,41.0,32.0,28.0,24.0,58,47,25,0.00,40.00,22,11,40,0.00
2013-9-25,44.0,35.4,31.0,34.0,32.8,28.0,100,91,54,0.00,40.00,21,7,38,0.25
2013-9-26,35.0,29.1,27.0,30.0,26.4,21.0,100,90,67,0.00,40.00,10,5,17,0.09
2013-9-27,36.0,28.4,24.0,32.0,26.7,23.0,100,93,70,0.00,40.00,13,4,23,0.22
2013-9-28,40.0,34.3,28.0,30.0,26.5,-99.9,93,76,64,0.00,40.00,27,19,54,0.44
2013-9-29,48.0,42.6,39.0,32.0,28.4,25.0,69,57,49,0.00,40.00,37,22,63,0.48
2013-9-30,48.0,42.3,39.0,38.0,34.0,25.0,91,73,50,0.00,40.00,25,18,56,0.10